Regional Weather Roundup
Issued by NWS Glasgow, MT

Home | Current Version | Previous Version | Text Only | Print | Product List | Glossary On
Versions: 1 2 3 4 5 6 7 8 9 10 11 12 13 14 15 16 17 18 19 20 21 22 23 24 25 26 27 28 29 30 31 32 33 34 35 36 37 38 39 40 41 42 43 44 45 46 47
000
ASUS45 KGGW 280115
RWRGGW
HOURLY WEATHER ROUNDUP FOR NORTHEAST MONTANA
NATIONAL WEATHER SERVICE GLASGOW MONTANA
600 PM MST THU NOV 27 2014

NOTE: "FAIR" INDICATES FEW OR NO CLOUDS BELOW 12,000 FEET WITH NO
SIGNIFICANT WEATHER AND/OR OBSTRUCTIONS TO VISISBILITY.

NORTHEAST MONTANA


CITY           SKY/WX    TMP DP  RH WIND       PRES   REMARKS
GLASGOW        PTCLDY    25  23  92 E12       29.75S FOG
PLENTYWOOD       N/A     19  17  92 E15         N/A
WOLF POINT     CLEAR     24  21  88 E9        29.80R
JORDAN           N/A     38  33  82 NW9       29.74S
WINNETT          N/A     48  33  56 SW10G22     N/A
SIDNEY         PTCLDY    28  23  80 N6        29.81F
GLENDIVE       CLEAR     30  28  93 SE7       29.77S
MALTA            N/A     30  30 100 E6          N/A
SCOBEY           N/A     19  12  74 E14       29.79S

FORT PECK REPORTS


CITY           SKY/WX    TMP DP  RH WIND       PRES   REMARKS
FORT PECK        N/A     30  30 100 NE12        N/A
THE PINES        N/A     33  32  96 N7          N/A

SOUTHEAST MONTANA


CITY           SKY/WX    TMP DP  RH WIND       PRES   REMARKS
BILLINGS       PTCLDY    47  29  49 SW18      29.82F
MILES CITY     MOCLDY    40  33  76 S6        29.78F
BAKER          MOCLDY    36  29  75 W8        29.79S
LIVINGSTON     PTCLDY    52  29  41 SW37G53   29.84R

CENTRAL MONTANA


CITY           SKY/WX    TMP DP  RH WIND       PRES   REMARKS
HAVRE          MOCLDY    29  28  96 SW8       29.71F FOG
LEWISTOWN      PTCLDY    48  33  56 SW14      29.77F
GREAT FALLS    CLEAR     49  36  61 W17       29.72F
CUT BANK       PTCLDY    42  35  76 W17       29.68F
HELENA         MOCLDY    50  33  52 MISG      29.82S
BUTTE          CLOUDY    45  32  60 SW13      29.94S
BOZEMAN        CLOUDY    48  30  49 SW8       29.90S

WESTERN MONTANA


CITY           SKY/WX    TMP DP  RH WIND       PRES   REMARKS
MISSOULA       CLOUDY    47  38  71 N7        29.88F
KALISPELL      NOT AVBL

NORTH DAKOTA


CITY           SKY/WX    TMP DP  RH WIND       PRES   REMARKS
WILLISTON      CLOUDY    19  13  77 E9        29.84F
DICKINSON      PTCLDY    24  19  81 S9        29.78S
MINOT          LGT SNOW  12   8  84 E13       29.96F FOG     WCI  -3
BISMARCK       FLURRIES  12   7  80 SE17      29.97F WCI  -5

SOUTHERN SASKATCHEWAN


CITY           SKY/WX    TMP DP  RH WIND       PRES   REMARKS
REGINA         FLURRIES  19  16  86 E12G17    29.91F
ESTEVAN        FLURRIES  10   7  85 E17       29.92S WCI  -7
SWIFT CURRENT  CLOUDY    19  18  93 SE18G24   29.74F




USA.gov is the U.S. government's official web portal to all federal, state and local government web resources and services.